Welcome to the New NWS' Forecast!
Most changes are behind the scenes, but click here for differences you might notice.

Regional Weather Roundup (RWR)

Issued by National Weather Service (NWS)

                            
904 
ASUS42 KFFC 160310
RWRGA 
WEATHER ROUNDUP FOR GEORGIA
NATIONAL WEATHER SERVICE PEACHTREE CITY GA
1100 PM EDT WED AUG 15 2018

NOTE: "FAIR" INDICATES FEW OR NO CLOUDS BELOW 12,000 FEET WITH NO
SIGNIFICANT WEATHER AND/OR OBSTRUCTIONS TO VISIBILITY. 

* = USE WITH CAUTION. THE STATIONS MARKED WITH AN ASTERISK MAY NOT
REPORT WEATHER SUCH AS PRECIPITATION, FOG, OR THUNDER AND ARE NOT 
QUALITY CONTROLLED BY NWS.

THE REMARK "TC" DENOTES TEMPERATURE READING IN DEGREES CELSIUS.

GAZ001>058-160400-
NORTH GEORGIA
  
CITY           SKY/WX    TMP DP  RH WIND       PRES   REMARKS
ATLANTA        MOCLDY    82  68  62 CALM      30.13R                  
ATHENS         FAIR      73  70  90 CALM      30.12R                  
CHAMBLEE       FAIR      75  70  84 CALM      30.13R                  
PEACHTREE CITY FAIR      74  72  93 CALM      30.12R                  
ROME           FAIR      77  73  87 CALM      30.09R                  
WEST ATLANTA   MOCLDY    76  73  91 CALM      30.12R                  
GAINESVILLE    FAIR      77  65  66 SE3       30.16R                  
CARTERSVILLE   FAIR      73  72  96 CALM      30.11R                  

  
CITY           SKY/WX    TMP DP  RH WIND       PRES   REMARKS
DALTON*        FAIR      72  70  94 CALM      30.12R                  
LAWRENCEVILLE* FAIR      72  70  93 CALM      30.13R                  
MARIETTA       MOCLDY    77  70  79 S3        30.12R                  
KENNESAW*      FAIR      78  70  76 CALM      30.13R                  
CANTON*        FAIR      75  72  88 CALM      30.15S                  
BLAIRSVILLE*   FAIR      69  67  94 CALM      30.19S                  
$$

GAZ059>098-102>109-160400-
CENTRAL GEORGIA
  
CITY           SKY/WX    TMP DP  RH WIND       PRES   REMARKS
AUGUSTA-BUSH   FAIR      80  74  81 S3        30.09R                  
AUGUSTA-DANIEL FAIR      83  73  72 SE5       30.11R                  
COLUMBUS       FAIR      80  72  76 SW5       30.10R                  
MACON          FAIR      79  73  82 CALM      30.10R                  
ROBINS AFB     CLEAR     79  74  84 S6        30.10R                  

  
CITY           SKY/WX    TMP DP  RH WIND       PRES   REMARKS
LAGRANGE*      FAIR      76  76  98 CALM      30.11R                  
SYLVANIA*      FAIR      76  75  99 CALM      30.12R                  
MILLEDGEVILLE* FAIR      77  70  78 CALM      30.10R                  
$$

GAZ099>101-110>166-160400-
SOUTH GEORGIA
  
CITY           SKY/WX    TMP DP  RH WIND       PRES   REMARKS
SAVANNAH       FAIR      76  72  87 S3        30.12S                  
VALDOSTA       FAIR      75  75 100 CALM      30.11S                  
ALMA           FAIR      78  74  87 S5        30.12R                  
ST SIMONS      FAIR      79  70  74 SW5       30.13R                  
FT STEWART     CLOUDY    76  71  86 CALM      30.11R                  
ALBANY         FAIR      76  74  93 CALM      30.13R                  
HUNTER AFB     FAIR      76  71  84 S3        30.10R                  
MOODY AFB      FAIR      77  75  95 CALM      30.11S                  
BRUNSWICK      FAIR      77  70  78 CALM      30.14R                  

  
CITY           SKY/WX    TMP DP  RH WIND       PRES   REMARKS
BAINBRIDGE*      N/A     79  73  83 CALM      30.10F                  
MOULTRIE*      FAIR      75  73  94 CALM      30.13S                  
VIDALIA*       FAIR      77  72  83 S3        30.12S                  
WAYCROSS*      FAIR      77  74  90 CALM      30.13R                  
DOUGLAS*       FAIR      75  73  94 CALM      30.14R                  
$$